RRR4172 LIRF-LBSF

Flight info

Callsign RRR4172
Flight time N/A
Altitude 30000
Route OKUNO DCT ATRUP DCT ERPOG DCT RIVAM/N0357F310 DCT ORAKA DCT BALHA DCT MOKUN DCT RAMAP DCT NISVA NISVA4KXILSXZ/27
Aircraft A400/H-SDE2E3FGHIJ4J5M1RWXYZ/L4T

Departure

Time N/A
Airport Rome–Fiumicino Leonardo da Vinci International Airport (LIRF)

Arrival

Time 2026-05-06 19:23
Airport Sofia Airport (LBSF)
Time Latitude Longitude Altitude Speed Heading
2026-05-06 19:20 42.68779 23.56097 4632 ft 240 kts 274°
2026-05-06 19:20 42.68934 23.53807 4129 ft 245 kts 272°
2026-05-06 19:21 42.69065 23.51569 3521 ft 227 kts 271°
2026-05-06 19:21 42.69176 23.49551 2930 ft 205 kts 271°
2026-05-06 19:21 42.69248 23.48300 2527 ft 194 kts 273°
2026-05-06 19:22 42.69466 23.44703 1889 ft 142 kts 274°
2026-05-06 19:22 42.69546 23.43409 1767 ft 127 kts 274°
2026-05-06 19:22 42.69648 23.41755 1764 ft 52 kts 274°
2026-05-06 19:23 42.69674 23.41316 1767 ft 42 kts 276°
2026-05-06 19:23 42.69684 23.41006 1763 ft 30 kts 262°
2026-05-06 19:23 42.69614 23.40752 1765 ft 28 kts 248°
2026-05-06 19:23 42.69541 23.40564 1763 ft 11 kts 199°
2026-05-06 19:24 42.69528 23.40593 1766 ft 3 kts 97°
2026-05-06 19:24 42.69526 23.40638 1766 ft 7 kts 94°
2026-05-06 19:24 42.69522 23.40709 1767 ft 9 kts 94°
2026-05-06 19:24 42.69515 23.40816 1762 ft 13 kts 96°
2026-05-06 19:25 42.69504 23.40963 1762 ft 18 kts 96°
2026-05-06 19:25 42.69494 23.41149 1764 ft 21 kts 94°
2026-05-06 19:25 42.69481 23.41361 1766 ft 23 kts 96°
2026-05-06 19:25 42.69432 23.41527 1765 ft 18 kts 163°
2026-05-06 19:26 42.69304 23.41516 1763 ft 20 kts 185°
2026-05-06 19:26 42.69180 23.41555 1764 ft 17 kts 161°
2026-05-06 19:26 42.69083 23.41598 1765 ft 13 kts 172°
2026-05-06 19:26 42.69038 23.41561 1768 ft 5 kts 252°
2026-05-06 19:27 42.69030 23.41529 1768 ft 1 kts 251°
2026-05-06 19:27 42.69030 23.41527 1768 ft 0 kts 251°